Location: Festilli
(46.4000°N, 11.6667°E)
Time: 21:33:10
(UTC+00:00)

Cosmos 1869 Rocket - Pass Details

Date: 03 March 2021
Orbit: 604 x 633 km, 82.5° (Epoch: 22 April)

Event Time Altitude Azimuth Distance (km) Brightness Sun altitude
Rises 18:13:15 0° 158° (SSE) 2,859 6.7 -13.0°
Reaches altitude 10° 18:15:42 10° 147° (SSE) 1,964 5.8 -13.4°
Maximum altitude 18:19:21 27° 89° (E) 1,185 4.4 -14.1°
Drops below altitude 10° 18:23:05 10° 31° (NNE) 1,993 5.9 -14.7°
Sets 18:25:34 0° 20° (NNE) 2,909 6.9 -15.1°
